Location: Janeiro
(34.9957°N, 76.7652°W)
Time: 20:52:12
(UTC+00:00)

SKYMED 2 - Pass Details

Date: 14 December 2019
Orbit: 621 x 623 km, 97.9° (Epoch: 26 January)

Event Time Altitude Azimuth Distance (km) Brightness Sun altitude
Exits shadow 22:45:52 - 20° (NNE) 2,701 6.5 -10.0°
Reaches altitude 10° 22:47:37 10° 25° (NNE) 1,997 5.7 -10.4°
Maximum altitude 22:51:49 46° 99° (E) 837 3.9 -11.2°
Drops below altitude 10° 22:55:57 10° 173° (S) 1,982 6.3 -11.9°
Sets 22:58:12 0° 180° (S) 2,884 7.3 -12.4°
